Weather History for LIBH - September, 2013

Change the Weather History Date:

Tuesday, September 24, 2013

  Actual Average Record
Temperature  
Mean Temperature 68 °F -  
Max Temperature 79 °F - - ()
Min Temperature 56 °F - - ()
Cooling Degree Days 2    
Growing Degree Days 18 (Base 50)    
Moisture  
Dew Point 54 °F    
Average Humidity 62    
Maximum Humidity 82    
Minimum Humidity 27    
Precipitation  
Precipitation 0.00 in - - ()
Sea Level Pressure  
Sea Level Pressure 30.01 in    
Wind  
Wind Speed 3 mph ()    
Max Wind Speed 15 mph    
Max Gust Speed -    
Visibility 12.0 miles    
Events      
T = Trace of Precipitation, MM = Missing Value Source: Averaged Metar Reports

Daily Weather History Graph

Daily Weather History Graph

Search for Another Location

Airport or City:

Trip Planner

Search our weather history database for the weather conditions in past years. The results will help you decide how hot, cold, wet, or windy it might be!

Date:

Astronomy

Sep. 24, 2013 Rise Set
Actual Time 6:41 AM CEST 6:46 PM CEST
Civil Twilight 6:14 AM CEST 7:13 PM CEST
Nautical Twilight 5:42 AM CEST 7:45 PM CEST
Astronomical Twilight 5:10 AM CEST 8:17 PM CEST
Moon 9:49 PM CEST (9/24) 11:41 AM CEST (9/24)
Length of Visible Light 12h 58m
Length of Day
12h 04m
Waning Gibbous, 75% of the Moon is Illuminated
Sep 24
Waning Gibbous
Sep 27
Last Quarter
Oct 5
New
Oct 12
First Quarter
Oct 19
Full

Hourly Weather History & Observations

Time (CEST) Temp. Dew Point Humidity Pressure Visibility Wind Dir Wind Speed Gust Speed Precip Events Conditions
12:55 AM 60.8 °F 51.8 °F 72% 30.04 in - Calm Calm - N/A   Clear
1:55 AM 60.8 °F 50.0 °F 68% 30.04 in - Calm Calm - N/A   Clear
2:00 AM 60 °F 50 °F 62% 30.05 in 12 mi Calm Calm - -  
2:55 AM 59.0 °F 51.8 °F 77% 30.04 in - Calm Calm - N/A   Clear
3:55 AM 57.2 °F 50.0 °F 77% 30.04 in - Calm Calm - N/A   Clear
4:55 AM 57.2 °F 51.8 °F 82% 30.04 in - Calm Calm - N/A   Clear
5:55 AM 57.2 °F 51.8 °F 82% 30.01 in - Calm Calm - N/A   Clear
6:55 AM 57.2 °F 51.8 °F 82% 30.01 in - NNW 5.8 mph - N/A   Clear
7:55 AM 57.2 °F 50.0 °F 77% 30.01 in - NW 5.8 mph - N/A   Clear
8:00 AM 57 °F 50 °F 69% 30.02 in 12 mi NW 5.8 mph - -  
8:55 AM 62.6 °F 48.2 °F 59% 30.01 in - NNW 3.5 mph - N/A   Clear
9:55 AM 66.2 °F 48.2 °F 52% 30.01 in - NNW 4.6 mph - N/A   Clear
10:55 AM 71.6 °F 44.6 °F 38% 30.01 in - NNW 2.3 mph - N/A   Clear
11:55 AM 75.2 °F 42.8 °F 31% 30.01 in - Calm Calm - N/A   Clear
12:55 PM 77.0 °F 44.6 °F 32% 30.01 in - East 9.2 mph - N/A   Clear
1:55 PM 78.8 °F 51.8 °F 39% 30.01 in - East 12.7 mph - N/A   Clear
2:00 PM 79 °F 51 °F 27% 30.02 in 12 mi East 12.7 mph - -  
2:55 PM 77.0 °F 57.2 °F 50% 30.01 in - East 13.8 mph - N/A   Clear
3:55 PM 77.0 °F 57.2 °F 50% 30.01 in - SE 15.0 mph - N/A   Clear
4:55 PM 77.0 °F 60.8 °F 57% 29.98 in - SE 13.8 mph - N/A   Clear
5:55 PM 75.2 °F 62.6 °F 65% 29.98 in - SSE 11.5 mph - N/A   Clear
6:55 PM 75.2 °F 60.8 °F 61% 29.98 in - SSE 6.9 mph - N/A   Clear
7:55 PM 73.4 °F 62.6 °F 69% 29.98 in - East 3.5 mph - N/A   Clear
8:00 PM 74 °F 62 °F 58% 29.98 in 12 mi East 3.5 mph - -  
8:55 PM 71.6 °F 60.8 °F 69% 29.98 in - East 3.5 mph - N/A   Clear
9:55 PM 68.0 °F 59.0 °F 73% 29.98 in - East 3.5 mph - N/A   Clear
10:55 PM 66.2 °F 59.0 °F 78% 29.98 in - East 3.5 mph - N/A   Clear
11:55 PM 64.4 °F 57.2 °F 77% 29.98 in - Calm Calm - N/A   Clear